SCP
0 0 0 0 0 0 0 0 0 0 1 1 0 0 0 1 1 1 1 1 1 1 1 0 0 1 1 1 1 1 0 0 1 0 0 0 0 0 0 0 0 0 0
0 0 0 0 0 0 0 0 0 0 0 0 0 0 0 1 1 1 1 1 1 1 0 0 0 1 1 1 1 1 0 1 0 0 0 0 0 0 0 0 0 0 0
0 0 0 0 0 0 0 0 0 0 0 0 0 0 0 1 1 1 1 1 0 0 0 0 0 1 1 1 0 0 0 0 1 0 0 0 0 0 0 0 0 0 0
0 0 0 0 0 0 0 0 0 0 0 0 0 0 0 0 1 1 1 0 0 0 0 0 1 1 1 1 0 0 0 0 1 1 1 1 0 0 0 0 0 0 0
0 0 0 0 0 0 0 0 0 0 0 0 0 0 0 0 0 0 0 0 0 0 0 0 1 1 1 0 0 0 0 0 1 1 1 1 0 0 0 0 0 0 0
0 0 0 0 0 0 0 0 0 0 0 0 0 0 0 0 0 0 0 0 0 0 0 0 1 0 0 0 0 0 0 0 1 1 1 1 0 0 0 0 0 0 0
0 0 0 0 0 0 0 0 0 0 0 0 0 0 0 0 0 0 0 0 0 0 0 0 0 0 0 0 0 0 0 1 1 1 1 0 0 0 0 0 0 0 0
0 0 0 0 0 0 0 0 0 0 0 0 0 0 0 0 0 0 0 0 0 0 0 0 0 0 0 0 0 0 0 0 0 0 0 0 1 0 0 0 0 0 0
0 0 0 0 0 0 0 0 0 0 0 0 0 0 0 0 0 0 0 0 0 0 0 0 0 0 0 0 0 0 0 0 0 0 0 1 1 1 1 1 0 0 0
0 0 0 0 0 0 0 0 0 0 0 0 0 0 0 0 0 0 0 0 0 0 0 0 0 0 0 0 0 0 0 0 0 0 0 1 1 0 1 1 0 0 0
0 0 0 0 0 0 0 0 0 0 0 0 0 0 0 0 0 0 0 0 0 0 0 0 0 0 0 0 0 1 1 1 0 0 1 1 1 0 0 0 0 0 0
0 0 0 0 0 0 0 0 0 0 0 0 0 0 0 0 0 0 0 0 0 0 0 0 0 0 0 0 0 0 1 1 1 1 1 1 1 0 0 0 0 0 0
0 0 0 0 0 0 0 0 0 0 0 0 0 0 0 0 0 0 0 0 0 0 0 0 1 0 0 0 0 0 0 1 1 1 1 1 1 0 0 0 0 0 0
0 0 0 0 0 0 0 0 0 0 0 0 0 0 0 0 0 0 0 0 0 0 0 0 1 0 0 0 0 0 0 1 1 1 1 1 1 0 0 0 0 0 0
0 0 0 0 0 0 0 0 0 0 0 0 0 0 0 0 0 0 0 0 0 0 0 1 1 0 1 1 0 0 0 1 1 0 0 1 1 0 0 0 0 0 0
0 0 0 0 0 0 0 0 0 0 0 0 0 0 0 0 0 0 0 0 0 0 0 0 0 0 1 1 1 1 1 1 0 0 0 0 0 0 0 0 0 0 0
0 0 0 0 0 0 0 0 0 0 0 0 0 0 0 0 0 0 0 0 0 0 0 0 0 0 0 1 1 1 1 1 0 0 0 0 0 0 0 0 0 0 0
0 0 0 0 0 0 0 0 0 0 0 0 0 0 0 0 0 0 0 0 0 0 0 0 0 0 0 1 0 0 1 1 0 0 0 0 0 0 0 0 0 0 0
0 0 0 0 0 0 0 0 0 0 0 0 0 0 0 0 0 0 0 0 0 0 0 0 0 0 0 0 0 0 0 0 0 0 0 0 0 0 0 0 0 0 0
0 0 0 0 0 0 0 0 0 0 0 0 0 0 0 0 0 0 0 0 0 0 0 0 0 0 0 0 0 0 0 0 0 0 0 0 0 0 0 0 0 0 0
0 0 0 0 0 0 0 0 0 0 0 0 0 0 0 0 0 0 0 0 0 0 0 0 0 0 0 0 0 0 0 0 0 0 0 0 0 0 0 0 0 0 0
0 0 0 0 0 0 0 0 0 0 0 0 0 0 0 0 0 0 0 0 0 0 0 0 0 0 0 0 0 0 0 0 0 0 0 0 0 0 0 0 0 0 0
0 0 0 0 0 0 0 0 0 0 0 0 0 0 0 0 0 0 0 0 0 0 0 0 0 0 0 0 0 0 0 0 0 0 0 0 0 0 0 0 0 0 0
0 0 0 0 0 0 0 0 0 0 0 0 0 0 0 0 0 0 0 0 0 0 0 0 0 0 0 0 0 0 0 0 0 0 0 0 0 0 1 1 0 0 0
0 0 0 0 0 0 0 0 0 0 0 0 0 0 0 0 0 0 0 0 0 0 0 0 0 0 0 0 0 0 0 0 0 0 0 0 0 0 0 0 0 0 0
0 0 0 0 0 0 0 0 0 0 0 0 0 0 0 0 0 0 0 0 0 0 0 0 0 0 0 0 0 0 0 0 0 0 0 0 0 0 0 0 0 0 0
Wind_Speed
8 10 11 12 12 11 11 11 11 11 11 11 11 11 11 11 11 11 10 10 10 10 10 10 9 9 9 9 8 8 8 7 6 5 5 5 6 7 7 8 8 5 8
10 12 12 12 12 12 12 12 12 12 12 12 11 11 11 10 10 10 10 10 10 9 9 9 8 8 8 8 8 8 7 6 5 5 3 3 5 7 8 8 9 5 8
12 12 12 12 13 13 13 13 12 12 12 12 11 11 11 10 10 10 9 9 9 8 8 8 8 7 7 7 7 7 7 7 7 7 5 1 4 7 8 8 8 8 8
13 12 12 13 13 13 13 13 13 12 12 11 11 11 10 10 9 9 8 8 8 8 8 7 7 7 7 6 5 5 6 7 8 8 2 2 4 8 8 8 8 8 8
14 12 12 14 14 14 13 13 13 12 11 11 10 9 9 9 8 8 8 7 7 7 7 7 7 6 6 5 5 5 6 7 9 6 2 4 5 7 8 8 7 8 8
14 13 12 14 14 14 13 13 12 11 11 10 9 9 8 8 8 7 7 7 7 7 7 7 6 5 5 5 5 5 6 8 9 2 3 4 4 7 7 7 7 7 8
14 13 12 14 14 13 13 12 12 11 10 9 8 8 7 7 6 6 6 6 7 7 7 6 5 5 5 4 4 5 6 9 6 1 2 4 5 7 7 7 7 7 7
13 13 12 13 13 13 12 11 10 9 9 8 7 6 5 4 5 5 6 7 7 7 6 6 5 4 4 4 3 4 6 9 6 2 3 5 7 7 7 7 7 6 6
11 11 11 10 10 11 11 10 9 7 6 5 4 3 2 2 3 4 6 6 6 6 6 5 4 3 3 3 3 5 6 8 6 2 4 5 7 8 7 6 7 6 6
8 8 8 9 9 8 8 8 7 6 4 3 2 1 2 2 3 3 6 5 5 4 4 4 3 3 4 4 4 6 7 7 4 1 4 6 8 8 7 6 6 6 6
7 6 6 6 6 7 7 8 7 6 3 3 3 4 4 2 3 3 6 3 1 1 2 3 4 5 6 6 7 7 6 3 1 4 4 8 9 8 7 6 6 6 5
7 6 6 6 5 5 4 5 3 3 2 1 1 0 1 2 2 3 5 3 3 3 4 6 7 7 6 3 5 6 3 2 1 5 5 9 9 8 7 7 6 5 5
6 5 5 5 5 5 3 3 1 1 2 2 3 2 2 2 1 2 1 2 2 2 2 3 4 3 2 1 1 1 1 2 3 4 5 9 8 8 7 7 7 5 5
6 5 4 4 5 6 4 2 2 2 3 3 3 4 3 2 2 2 2 2 2 1 2 2 2 3 3 2 1 1 3 3 3 4 4 9 8 7 7 7 7 6 6
6 5 5 4 6 6 3 1 5 4 3 3 2 3 3 2 3 2 2 2 3 2 2 3 3 4 4 4 4 4 4 4 5 5 3 7 7 7 6 6 7 7 6
6 7 5 4 5 5 4 3 4 3 2 3 3 3 4 3 3 3 3 3 3 2 2 2 3 3 2 3 4 4 4 4 4 4 4 4 6 6 6 6 6 7 7
7 8 5 6 6 7 6 5 4 4 4 3 3 4 5 4 5 4 4 3 3 3 4 3 4 3 3 3 3 4 3 4 3 4 3 3 3 5 6 6 6 7 7
8 8 5 6 7 7 5 4 4 4 4 4 4 5 7 6 5 4 3 3 4 4 3 3 4 3 4 3 3 3 3 3 4 4 3 3 2 3 4 6 6 6 6
7 8 7 6 6 6 5 4 4 4 3 4 5 4 5 6 6 4 3 4 4 3 4 4 4 3 3 3 1 3 3 3 3 4 3 4 3 3 3 4 5 6 6
6 8 8 6 6 5 3 4 3 4 4 4 4 4 5 5 6 5 4 5 4 3 3 4 4 3 3 3 3 3 3 3 3 4 4 4 3 4 3 3 2 3 5
6 7 8 6 5 3 2 3 3 3 3 3 3 3 4 5 5 4 4 4 4 4 5 5 4 4 4 3 3 3 3 3 4 3 3 3 4 4 3 3 2 2 2
6 6 7 6 5 5 2 3 3 3 3 3 2 3 5 5 6 5 4 3 4 4 5 5 4 4 3 3 2 2 2 4 4 3 3 4 5 3 4 4 3 3 3
5 5 7 7 6 5 4 3 3 3 2 2 2 3 4 4 5 5 5 4 4 4 3 4 4 4 3 3 3 2 2 1 2 3 4 4 4 4 4 3 5 5 5
6 5 7 7 6 6 4 3 3 3 2 2 2 2 3 3 3 4 4 5 5 4 5 5 5 4 4 3 3 3 2 1 1 1 3 4 4 4 4 4 5 5 5
6 5 5 6 7 5 5 4 2 2 2 2 3 3 3 3 3 4 4 4 4 4 4 4 4 5 4 4 3 3 3 3 3 2 2 3 3 3 3 4 4 4 4
6 5 5 6 6 5 4 4 3 3 2 3 2 2 2 2 2 3 3 4 4 4 4 4 3 4 4 4 4 3 3 3 3 3 2 2 2 2 2 3 3 3 3
Wind_Direction
95 94 88 86 85 84 84 83 83 84 85 84 83 80 78 75 73 69 67 64 61 59 56 54 50 47 44 43 43 42 40 37 32 33 42 52 55 50 43 35 29 42 39
101 96 88 87 86 85 84 83 83 83 84 84 82 80 78 76 74 70 65 62 61 59 56 53 49 45 43 42 39 35 29 22 9 357 5 47 66 59 50 40 38 33 33
100 99 91 86 86 86 85 84 83 83 82 82 80 79 77 74 72 70 63 58 55 55 55 51 46 41 40 41 37 28 16 2 347 333 314 303 83 64 52 41 37 34 32
93 87 87 88 87 86 85 85 84 83 83 81 80 78 76 73 70 68 61 54 51 49 48 46 43 36 34 35 33 21 4 349 335 327 336 60 69 66 52 42 35 34 31
93 90 89 89 88 87 85 84 84 83 82 80 80 78 75 72 68 63 57 50 46 44 43 40 37 31 29 27 23 10 352 337 325 319 20 70 71 60 53 45 36 32 32
98 96 93 92 90 88 86 84 83 81 78 75 74 74 71 68 64 57 52 44 39 37 35 34 29 26 22 17 10 357 339 328 318 324 69 78 79 62 54 46 38 34 34
104 104 102 98 94 90 86 83 80 78 75 72 68 66 64 62 58 53 48 43 39 35 31 30 25 19 16 9 358 345 329 320 294 278 99 89 83 69 55 43 37 36 37
112 113 113 110 105 99 93 86 81 78 73 68 64 62 63 66 66 61 53 45 38 30 26 23 19 13 7 358 339 322 314 310 316 356 97 91 86 72 57 46 38 37 40
120 126 129 131 121 112 105 99 93 87 81 77 76 77 82 111 109 92 73 53 39 31 27 22 10 359 346 330 310 299 297 301 305 297 87 90 84 72 58 49 41 39 39
116 121 128 134 135 135 129 123 123 118 112 117 139 200 217 211 182 138 90 67 45 30 17 4 342 319 303 289 279 278 285 296 278 38 86 90 81 69 59 50 43 41 40
122 127 126 124 130 137 141 140 156 153 162 180 206 245 248 196 179 149 94 108 66 2 323 303 292 286 281 265 256 262 275 262 220 91 82 88 80 68 61 49 43 43 41
131 128 127 127 126 116 103 130 155 144 147 145 98 39 346 57 59 75 127 177 231 259 270 266 271 276 267 244 235 245 267 268 81 94 91 88 79 68 59 49 44 46 41
109 105 111 114 113 109 95 92 84 93 98 61 22 46 32 32 40 84 146 189 243 253 295 274 269 262 251 213 193 211 279 38 69 88 92 88 80 70 60 50 45 45 43
101 94 84 94 95 80 72 82 85 55 63 53 10 42 39 28 18 35 52 10 3 17 357 335 324 339 355 17 23 22 52 56 75 90 93 90 83 76 66 56 47 46 48
115 104 85 72 82 92 83 42 84 58 36 71 21 35 48 41 35 15 60 27 21 11 5 339 351 6 11 7 21 40 44 50 72 88 98 98 94 85 75 64 51 47 49
122 110 101 90 87 97 95 76 71 97 81 50 21 50 50 51 47 18 39 35 21 14 6 355 9 7 13 22 30 34 41 48 63 89 111 106 102 94 82 72 59 52 51
109 98 90 88 79 71 63 60 73 64 63 51 22 28 47 46 52 36 23 28 13 14 18 14 12 8 25 33 36 40 49 43 54 66 98 110 107 96 85 76 70 62 55
109 107 97 87 85 79 69 53 63 56 54 57 39 19 26 34 53 40 20 23 26 19 13 28 17 19 22 28 36 34 45 45 46 59 67 76 86 96 88 82 78 72 64
113 118 111 95 93 92 99 86 73 74 52 60 53 26 16 20 39 44 24 26 31 29 20 29 26 21 20 18 46 67 47 47 40 51 61 70 71 89 92 88 83 75 69
107 108 102 97 100 104 100 97 80 62 60 58 62 40 22 25 32 29 35 33 23 29 29 33 20 19 16 10 41 64 61 56 47 45 47 54 56 71 79 90 94 84 79
125 120 126 134 121 111 94 95 94 85 77 69 72 41 37 34 30 40 35 36 30 32 33 37 18 18 18 24 42 39 37 50 56 60 49 45 47 50 65 74 71 74 81
142 144 136 122 112 103 78 101 104 93 95 92 75 59 50 39 23 29 31 35 47 41 29 33 35 15 6 31 44 52 43 20 11 39 50 53 40 28 38 52 60 62 70
155 146 125 118 117 111 95 75 83 83 79 86 83 61 56 53 38 24 19 24 41 49 38 36 33 36 18 13 42 61 77 46 347 2 41 52 40 34 31 33 47 49 62
155 142 128 125 121 113 115 92 104 101 94 99 105 113 98 74 58 35 24 24 40 44 38 33 30 27 35 17 11 24 54 105 87 19 11 28 37 41 28 38 44 42 52
140 126 116 117 113 110 109 102 79 89 102 96 89 85 92 80 69 48 33 35 49 49 52 49 37 29 35 31 26 15 14 21 35 77 40 6 17 27 31 41 47 40 41
128 121 116 113 115 120 131 138 123 102 96 95 90 90 92 99 78 60 42 37 51 49 46 43 48 47 38 33 32 33 37 38 18 39 51 30 24 3 28 44 45 39 42